Tracking 29892 objects as of 21-Nov-2024
HD Live streaming from Space Station
objects crossing your sky now

TITAN 3C TRANSTAGE DEB

Track TITAN 3C TRANSTAGE DEB now!


NORAD ID: 38698
Int'l Code: 1968-081Y
Perigee: 33,776.8 km
Apogee: 35,571.7 km
Inclination: 2.1 °
Period: 1,379.3 minutes
Semi major axis: 41045 km
RCS: 5.0118 m2 (large)
Launch date: September 26, 1968
Source: United States (US)
Launch site: AIR FORCE EASTERN TEST RANGE (AFETR)

Note: This is SATELLITE DEBRIS
Your satellite tracking list
Your tracking list is empty




NASA's NSSDC Master Catalog

Two Line Element Set (TLE):
1 38698U 68081Y   24325.53721979 -.00000067  00000-0  00000+0 0  9999
2 38698   2.1430  73.9658 0218654 172.8899 186.9841  1.04401914 79821
Source of the keplerian elements: AFSPC